WAT53 CYYT-CYQX

Flight info

Callsign WAT53
Flight time 0h 28m
Altitude 14000
Route CYYT8 YQX
Aircraft B738/M-SDE2E3FGHIRWXY/LB1

Departure

Time 2026-04-28 00:18
Airport St. John's International Airport (CYYT)

Arrival

Time 2026-04-28 00:46
Airport Gander International Airport (CYQX)
Time Latitude Longitude Altitude Speed Heading
2026-04-27 23:58 47.61403 -52.74396 448 ft 0 kts 202°
2026-04-28 00:11 47.61408 -52.74393 448 ft 4 kts 202°
2026-04-28 00:12 47.61432 -52.74377 448 ft 4 kts 204°
2026-04-28 00:12 47.61457 -52.74361 448 ft 4 kts 201°
2026-04-28 00:12 47.61482 -52.74348 448 ft 4 kts 198°
2026-04-28 00:12 47.61487 -52.74346 448 ft 0 kts 199°
2026-04-28 00:14 47.61486 -52.74346 448 ft 0 kts 197°
2026-04-28 00:15 47.61479 -52.74342 448 ft 3 kts 156°
2026-04-28 00:15 47.61461 -52.74299 448 ft 8 kts 119°
2026-04-28 00:15 47.61432 -52.74207 448 ft 12 kts 113°
2026-04-28 00:15 47.61400 -52.74089 448 ft 13 kts 112°
2026-04-28 00:16 47.61355 -52.73983 448 ft 12 kts 141°
2026-04-28 00:16 47.61281 -52.73927 448 ft 12 kts 133°
2026-04-28 00:16 47.61234 -52.73800 434 ft 17 kts 116°
2026-04-28 00:16 47.61180 -52.73645 425 ft 14 kts 117°
2026-04-28 00:17 47.61129 -52.73499 416 ft 17 kts 116°
2026-04-28 00:17 47.61139 -52.73381 421 ft 10 kts 37°
2026-04-28 00:17 47.61199 -52.73408 422 ft 13 kts 321°
2026-04-28 00:17 47.61435 -52.73708 423 ft 83 kts 319°
2026-04-28 00:18 47.62020 -52.74482 564 ft 132 kts 323°
2026-04-28 00:18 47.62726 -52.75420 1325 ft 135 kts 326°
2026-04-28 00:18 47.63470 -52.76221 2282 ft 133 kts 334°
2026-04-28 00:18 47.64314 -52.77010 2854 ft 161 kts 333°
2026-04-28 00:19 47.65343 -52.78012 3167 ft 192 kts 331°
2026-04-28 00:19 47.66503 -52.79197 3604 ft 208 kts 330°
2026-04-28 00:19 47.67706 -52.80434 4299 ft 211 kts 331°
2026-04-28 00:19 47.68921 -52.81653 5041 ft 211 kts 332°
2026-04-28 00:20 47.70109 -52.82966 5678 ft 219 kts 321°
2026-04-28 00:20 47.71120 -52.84711 6351 ft 226 kts 316°
2026-04-28 00:20 47.72168 -52.86585 6743 ft 244 kts 316°
2026-04-28 00:20 47.73275 -52.88561 7451 ft 252 kts 316°
2026-04-28 00:21 47.74398 -52.90566 8417 ft 253 kts 316°
2026-04-28 00:21 47.75521 -52.92565 9310 ft 258 kts 316°
2026-04-28 00:21 47.76683 -52.94624 10199 ft 262 kts 315°
2026-04-28 00:21 47.77921 -52.96805 10558 ft 286 kts 315°
2026-04-28 00:22 47.79248 -52.99134 10754 ft 311 kts 315°
2026-04-28 00:22 47.80682 -53.01658 11246 ft 325 kts 314°
2026-04-28 00:22 47.82154 -53.04257 11969 ft 331 kts 314°
2026-04-28 00:22 47.83646 -53.06896 12771 ft 335 kts 314°
2026-04-28 00:23 47.85161 -53.09576 13532 ft 342 kts 314°
2026-04-28 00:23 47.86713 -53.12318 14009 ft 350 kts 314°
2026-04-28 00:23 47.88305 -53.15131 14031 ft 360 kts 314°
2026-04-28 00:23 47.89929 -53.18004 14045 ft 364 kts 314°
2026-04-28 00:24 47.91555 -53.20887 14042 ft 362 kts 314°
2026-04-28 00:24 47.93175 -53.23761 14058 ft 362 kts 314°
2026-04-28 00:24 47.94793 -53.26634 14055 ft 362 kts 313°
2026-04-28 00:24 47.96411 -53.29508 14048 ft 362 kts 313°
2026-04-28 00:25 47.98029 -53.32384 14055 ft 362 kts 313°
2026-04-28 00:25 47.99648 -53.35263 14047 ft 362 kts 313°
2026-04-28 00:25 48.01266 -53.38145 14054 ft 362 kts 313°
2026-04-28 00:25 48.02886 -53.41031 14054 ft 362 kts 313°
2026-04-28 00:26 48.04503 -53.43917 14052 ft 362 kts 313°
2026-04-28 00:26 48.06119 -53.46802 14051 ft 362 kts 313°
2026-04-28 00:26 48.07735 -53.49692 14055 ft 362 kts 313°
2026-04-28 00:26 48.09349 -53.52581 14054 ft 362 kts 313°
2026-04-28 00:27 48.10967 -53.55481 14062 ft 363 kts 313°
2026-04-28 00:27 48.12583 -53.58379 14057 ft 363 kts 313°
2026-04-28 00:27 48.14197 -53.61278 14064 ft 363 kts 313°
2026-04-28 00:27 48.15813 -53.64181 14065 ft 363 kts 313°
2026-04-28 00:28 48.17428 -53.67088 14058 ft 363 kts 313°
2026-04-28 00:28 48.19043 -53.69997 14059 ft 363 kts 313°
2026-04-28 00:28 48.20657 -53.72908 14059 ft 363 kts 313°
2026-04-28 00:28 48.22266 -53.75814 14063 ft 363 kts 313°
2026-04-28 00:29 48.23875 -53.78723 14065 ft 363 kts 313°
2026-04-28 00:29 48.24938 -53.80647 14061 ft 359 kts 313°
2026-04-28 00:29 48.26494 -53.83471 14040 ft 343 kts 313°
2026-04-28 00:29 48.27992 -53.86191 14062 ft 334 kts 313°
2026-04-28 00:30 48.29444 -53.88829 14068 ft 321 kts 313°
2026-04-28 00:30 48.30838 -53.91365 13980 ft 309 kts 313°
2026-04-28 00:30 48.32200 -53.93840 13514 ft 308 kts 313°
2026-04-28 00:30 48.33567 -53.96323 13004 ft 308 kts 314°
2026-04-28 00:31 48.34923 -53.98790 12463 ft 302 kts 314°
2026-04-28 00:31 48.36246 -54.01200 11885 ft 297 kts 314°
2026-04-28 00:31 48.37548 -54.03577 11315 ft 292 kts 314°
2026-04-28 00:31 48.38834 -54.05923 10765 ft 291 kts 314°
2026-04-28 00:32 48.40108 -54.08252 10550 ft 284 kts 314°
2026-04-28 00:32 48.41738 -54.11238 10353 ft 272 kts 314°
2026-04-28 00:32 48.42522 -54.12676 10259 ft 265 kts 314°
2026-04-28 00:32 48.43674 -54.14788 10137 ft 256 kts 314°
2026-04-28 00:33 48.44784 -54.16826 9981 ft 249 kts 314°
2026-04-28 00:33 48.45877 -54.18828 9722 ft 246 kts 315°
2026-04-28 00:33 48.46957 -54.20809 9451 ft 244 kts 315°
2026-04-28 00:33 48.48032 -54.22781 9164 ft 243 kts 315°
2026-04-28 00:34 48.49101 -54.24744 8854 ft 242 kts 315°
2026-04-28 00:34 48.50167 -54.26704 8566 ft 241 kts 315°
2026-04-28 00:34 48.51225 -54.28651 8288 ft 239 kts 315°
2026-04-28 00:34 48.52273 -54.30583 8022 ft 237 kts 315°
2026-04-28 00:35 48.53310 -54.32495 7764 ft 235 kts 315°
2026-04-28 00:35 48.54340 -54.34396 7505 ft 233 kts 315°
2026-04-28 00:35 48.55362 -54.36284 7256 ft 232 kts 315°
2026-04-28 00:35 48.56379 -54.38163 6992 ft 231 kts 315°
2026-04-28 00:36 48.57390 -54.40032 6741 ft 229 kts 315°
2026-04-28 00:36 48.58395 -54.41892 6445 ft 228 kts 314°
2026-04-28 00:36 48.59393 -54.43741 6206 ft 226 kts 314°
2026-04-28 00:36 48.60370 -54.45552 5948 ft 224 kts 314°
2026-04-28 00:37 48.61352 -54.47373 5711 ft 222 kts 314°
2026-04-28 00:37 48.62323 -54.49175 5482 ft 221 kts 314°
2026-04-28 00:37 48.63286 -54.50963 5293 ft 218 kts 314°
2026-04-28 00:37 48.64253 -54.52757 5057 ft 224 kts 314°
2026-04-28 00:38 48.65261 -54.54626 4797 ft 233 kts 314°
2026-04-28 00:38 48.66289 -54.56538 4507 ft 234 kts 313°
2026-04-28 00:38 48.67312 -54.58448 4228 ft 233 kts 313°
2026-04-28 00:38 48.68319 -54.60326 4079 ft 223 kts 313°
2026-04-28 00:39 48.69367 -54.61891 4003 ft 202 kts 336°
2026-04-28 00:39 48.70656 -54.62177 4014 ft 180 kts
2026-04-28 00:39 48.71845 -54.62100 3998 ft 161 kts
2026-04-28 00:39 48.72906 -54.62013 3992 ft 145 kts
2026-04-28 00:40 48.73908 -54.61890 4003 ft 144 kts
2026-04-28 00:40 48.74910 -54.61685 4013 ft 146 kts
2026-04-28 00:40 48.75926 -54.61429 3859 ft 149 kts
2026-04-28 00:40 48.76944 -54.61149 3674 ft 148 kts
2026-04-28 00:41 48.77933 -54.60868 3450 ft 139 kts
2026-04-28 00:41 48.78839 -54.60606 3308 ft 125 kts
2026-04-28 00:41 48.79705 -54.60357 3098 ft 126 kts
2026-04-28 00:41 48.80570 -54.60107 2906 ft 125 kts
2026-04-28 00:42 48.81418 -54.59861 2740 ft 123 kts
2026-04-28 00:42 48.82251 -54.59621 2563 ft 122 kts
2026-04-28 00:42 48.83095 -54.59377 2352 ft 122 kts 10°
2026-04-28 00:42 48.83936 -54.59134 2186 ft 126 kts
2026-04-28 00:43 48.84794 -54.58886 2006 ft 126 kts 10°
2026-04-28 00:43 48.85635 -54.58642 1832 ft 123 kts
2026-04-28 00:43 48.86471 -54.58400 1652 ft 122 kts
2026-04-28 00:43 48.87317 -54.58157 1474 ft 123 kts
2026-04-28 00:44 48.88174 -54.57908 1300 ft 126 kts
2026-04-28 00:44 48.89039 -54.57658 1084 ft 124 kts 10°
2026-04-28 00:44 48.89863 -54.57419 910 ft 119 kts 10°
2026-04-28 00:44 48.90653 -54.57192 755 ft 117 kts 10°
2026-04-28 00:45 48.91463 -54.56965 623 ft 120 kts 10°
2026-04-28 00:45 48.92283 -54.56724 461 ft 119 kts 11°
2026-04-28 00:45 48.93010 -54.56514 448 ft 85 kts 10°
2026-04-28 00:45 48.93502 -54.56370 447 ft 65 kts 11°
2026-04-28 00:46 48.93901 -54.56257 452 ft 52 kts 10°
2026-04-28 00:46 48.94215 -54.56168 462 ft 41 kts 10°
2026-04-28 00:46 48.94470 -54.56097 462 ft 34 kts 10°
2026-04-28 00:46 48.94691 -54.56034 457 ft 29 kts 12°
2026-04-28 00:47 48.94802 -54.56140 456 ft 20 kts 290°
2026-04-28 00:47 48.94849 -54.56345 456 ft 21 kts 289°
2026-04-28 00:47 48.94893 -54.56555 458 ft 21 kts 288°
2026-04-28 00:47 48.94940 -54.56788 463 ft 23 kts 280°
2026-04-28 00:48 48.94835 -54.56945 465 ft 26 kts 198°
2026-04-28 00:48 48.94721 -54.57033 466 ft 12 kts 247°
2026-04-28 00:48 48.94732 -54.57150 467 ft 11 kts 288°
2026-04-28 00:48 48.94757 -54.57260 468 ft 11 kts 288°
2026-04-28 00:49 48.94779 -54.57368 466 ft 11 kts 288°
2026-04-28 00:49 48.94802 -54.57473 469 ft 10 kts 287°
2026-04-28 00:49 48.94801 -54.57566 468 ft 7 kts 230°
2026-04-28 00:49 48.94769 -54.57573 470 ft 3 kts 165°
2026-04-28 00:50 48.94752 -54.57564 468 ft 0 kts 159°